Exponent Article Index

Nid Title Volume Issue Page Column Photo Date Entered Entered By Last Modifiedsort ascending Last Modified By
164154 Attention all poets 93 2 10 1 NO 6/29/2017 dahmsd 6/29/2017 dahmsd
150705 Chmurny's resignation creates controversy speculation links departure to Al-Yasiri settlement 92 1 1 1 NO 1/7/2014 reinecka 6/28/2017 dahmsd
164032 People miss the point of Earth Day 92 28 3 1 NO 6/28/2017 dahmsd 6/28/2017 dahmsd
164034 Students need to be aware of RHC 92 28 3 2 NO 6/28/2017 dahmsd 6/28/2017 dahmsd
164035 Legal affairs committee approved 92 28 4 2 NO 6/28/2017 dahmsd 6/28/2017 dahmsd
164036 Siegel wants a student senator seat on Faculty Senate 92 28 4 2 NO 6/28/2017 dahmsd 6/28/2017 dahmsd
164037 Distinguished lecturer program re-examined and discussed 92 28 4 2 NO 6/28/2017 dahmsd 6/28/2017 dahmsd
164038 Grabowski: Public relations is the selling of ideas 92 28 4 1 YES 6/28/2017 dahmsd 6/28/2017 dahmsd
164039 COPS: Not just door-openers 92 28 7 1 YES 6/28/2017 dahmsd 6/28/2017 dahmsd
164040 A view from the back seat 92 28 7 2 NO 6/28/2017 dahmsd 6/28/2017 dahmsd
164041 SEAC dumps a quarter-ton of garbage on campus lawn, 50 percent of trash may be recyclable 92 28 8 1 YES 6/28/2017 dahmsd 6/28/2017 dahmsd
164042 Students must support the Avalon 92 28 9 1 NO 6/28/2017 dahmsd 6/28/2017 dahmsd
164043 PHOTO: Schwetzingen Day 92 28 10 1 YES 6/28/2017 dahmsd 6/28/2017 dahmsd
164045 Platteville splits with Point; Shutout by Wall, hitting of Zell sparks game two win 92 28 11 1 YES 6/28/2017 dahmsd 6/28/2017 dahmsd
164046 Ryan to coach at Festival 92 28 11 1 YES 6/28/2017 dahmsd 6/28/2017 dahmsd
164047 Conlin reaches school record at Drake 92 28 11 2 YES 6/28/2017 dahmsd 6/28/2017 dahmsd
164048 Baseball splits 6 in WSUC South 92 28 12 1 NO 6/28/2017 dahmsd 6/28/2017 dahmsd
164049 PHOTO: Hey, Mr. Baseball 92 28 12 2 YES 6/28/2017 dahmsd 6/28/2017 dahmsd
164050 Gucwa named WSUC player of week 92 28 12 1 NO 6/28/2017 dahmsd 6/28/2017 dahmsd
164052 Winners uplifted after bench press contest 92 28 12 2 NO 6/28/2017 dahmsd 6/28/2017 dahmsd
164054 Pioneers got 6-4 on 5-day, 10-game odyssey 92 28 13 1 YES 6/28/2017 dahmsd 6/28/2017 dahmsd
164055 Heath wins 400 at Loras open 92 28 14 1 NO 6/28/2017 dahmsd 6/28/2017 dahmsd
164056 Ruggers drop tough 11-7 decision to Wisconsin 92 28 14 2 NO 6/28/2017 dahmsd 6/28/2017 dahmsd
164057 Cartoons 92 28 15 1 YES 6/28/2017 dahmsd 6/28/2017 dahmsd
164058 PHOTO: Widespread Panic 92 29 1 1 YES 6/28/2017 dahmsd 6/28/2017 dahmsd
164060 BIC Dean to go on leave of absence 92 29 1 1 YES 6/28/2017 dahmsd 6/28/2017 dahmsd
164061 Distinguished LEcturer Series to be revamped 92 29 1 2 NO 6/28/2017 dahmsd 6/28/2017 dahmsd
164062 Summer school registration blues 92 29 2 1 NO 6/28/2017 dahmsd 6/28/2017 dahmsd
164063 What is the 'real world' all about anyway? 92 29 2 1 NO 6/28/2017 dahmsd 6/28/2017 dahmsd
164064 Engineering student's ethics defended 92 29 3 1 NO 6/28/2017 dahmsd 6/28/2017 dahmsd
164065 New faculty member is distressed by last week's On Second Thought 92 29 3 1 NO 6/28/2017 dahmsd 6/28/2017 dahmsd
164066 Objectiveness of the Strategic Planning Committee questioned 92 29 3 2 NO 6/28/2017 dahmsd 6/28/2017 dahmsd
164068 Voicebox 92 29 3 1 YES 6/28/2017 dahmsd 6/28/2017 dahmsd
164069 Buelow makes clarification about the notification of open house date 92 29 4 1 NO 6/28/2017 dahmsd 6/28/2017 dahmsd
164070 Filibuster proves Republicans are only concerned with their own power in DC 92 29 4 2 NO 6/28/2017 dahmsd 6/28/2017 dahmsd
164071 Senate to send implementation plan to UW-System 92 29 5 1 NO 6/28/2017 dahmsd 6/28/2017 dahmsd
164072 Greenbelt project looking for the go-ahead 92 29 5 1 NO 6/28/2017 dahmsd 6/28/2017 dahmsd
164073 Police Reports 92 29 6 1 NO 6/28/2017 dahmsd 6/28/2017 dahmsd
164074 Child Care Center looks for improvement 92 29 6 2 NO 6/28/2017 dahmsd 6/28/2017 dahmsd
164075 Leadership Recognition Awards given out 92 29 6 2 NO 6/28/2017 dahmsd 6/28/2017 dahmsd
164076 Delta Sigs trek 16 miles for Brandon 92 29 8 1 YES 6/28/2017 dahmsd 6/28/2017 dahmsd
164077 Moo U. UW-Platteville ag students, down on the farm 92 29 9 1 YES 6/28/2017 dahmsd 6/28/2017 dahmsd
164078 Pioneers win crown at Ohio Northern tourney 92 29 11 1 NO 6/28/2017 dahmsd 6/28/2017 dahmsd
164079 Now they hehad to WWIAC tourney with NCAA hopes on line 92 29 11 2 NO 6/28/2017 dahmsd 6/28/2017 dahmsd
164080 UW-P men 8th at La Crosse 92 29 11 1 NO 6/28/2017 dahmsd 6/28/2017 dahmsd
164081 Baseball winds down season 92 29 11 2 NO 6/28/2017 dahmsd 6/28/2017 dahmsd
164082 UW-Platteville's Athletes of the Year 92 29 12 1 YES 6/28/2017 dahmsd 6/28/2017 dahmsd
164083 Women 11th at La Crosse 92 29 14 1 NO 6/28/2017 dahmsd 6/28/2017 dahmsd
164084 Cartoons 92 29 15 1 YES 6/28/2017 dahmsd 6/28/2017 dahmsd
164085 Chancellor to stay in residence hall, Concern for students cited as motivation for temporary move to McGregor 93 1 1 1 NO 6/28/2017 dahmsd 6/28/2017 dahmsd

Pages

Footer Anchor